一网星座-0341星 (ONEWEB-0341 )

导读

ONEWEB-0341是英国OneWeb公司低轨宽带卫星星座中的一员,于2021年9月14日成功发射进入低地球轨道。OneWeb星座旨在为全球各地用户提供覆盖广泛的高速卫星互联网服务,填补地面网络覆盖盲区。该卫星同批次发射的组网卫星共同推进全球卫星宽带网络建设,助力公司完成近600颗卫星的初始星座组网计划,为海事、航空、偏远地区等场景提供可靠网络连接服务,推动全球互联基础设施发展。

基本信息
目录编号:
49207
目录名称:
ONEWEB-0341
国际标识:
2021-083X
轨道中心:
EARTH
卫星名称:
一网星座-0341星
卫星全名:
一网星座-0341星 (ONEWEB-0341 )
卫星状态:
在轨 (已飞行1734 天)
发射日期:
2021-09-14 UTC
国别 :
英国 (GB)
星等 :
--
轨道信息
数据来源 国际轨道数据 AOE轨道数据
星历时间 2026-06-14T05:03:43+0800
14小时前
查看轨道信息
2026-06-14T16:00:00+0800
3小时前
查看轨道信息
半长轴 7567.881km 7567.857km
偏心率 0.0002172 0.0002215
轨道倾角 87.916° 87.917°
近地点辐角 103.082° 104.477°
升交点赤经 336.117° 336.026°
平近点角 257.056° 257.993°
近地点 1188.1km 1188.043km
远地点 1191.388km 1191.397km
周期 109.200分钟 109.199分钟
每日圈数 13.18686 13.186922
详细信息
平衡模式:
三轴稳定
覆盖范围:
全球
运营商:
一网卫星公司
运营商所在国:
英国
制造商(研发单位):
一网卫星公司
制造商所在国:
英国
使用方式:
暂无
卫星简介
OneWeb卫星网络由648颗重约125公斤的微型卫星组成,运行在1200公里的轨道上。 每颗卫星都能够提供至少每秒8千兆位的吞吐量,以使用其高吞吐量的Ku频段有效载荷为家庭和移动平台提供互联网接入。该卫星仍在工作。
2D轨道图
3D轨道图
轨道高度分析图
轨道倾角分析图
轨道综合分析图
查看轨道综合分析图